Weather History for La Grande, OR

Change the Weather History Date:

Sunday, May 25, 2014

  Actual Average Record
Temperature  
Mean Temperature 58 °F -  
Max Temperature 75 °F 66 °F 87 °F (1983)
Min Temperature 42 °F 42 °F 28 °F (1975)
Degree Days  
Heating Degree Days 6    
Growing Degree Days 8 (Base 50)    
Moisture  
Dew Point 37 °F    
Average Humidity 45    
Maximum Humidity 66    
Minimum Humidity 29    
Precipitation  
Precipitation 0.00 in - - ()
Sea Level Pressure  
Sea Level Pressure 30.01 in    
Wind  
Wind Speed 3 mph (NW)    
Max Wind Speed 17 mph    
Max Gust Speed 21 mph    
Visibility 10 miles    
Events      
Averages and records for this station are not official NWS values.
T = Trace of Precipitation, MM = Missing Value Source: NWS Daily Summary

Daily Weather History Graph

Daily Weather History Graph

Search for Another Location

Airport:

Trip Planner

Search our weather history database for the weather conditions in past years. The results will help you decide how hot, cold, wet, or windy it might be!

Date:

Astronomy

May. 25, 2014 Rise Set
Actual Time 5:12 AM PDT 8:26 PM PDT
Civil Twilight 4:36 AM PDT 9:02 PM PDT
Nautical Twilight 3:50 AM PDT 9:48 PM PDT
Astronomical Twilight 2:52 AM PDT 10:46 PM PDT
Moon 3:29 AM PDT (5/25) 5:23 PM PDT (5/25)
Length of Visible Light 16h 25m
Length of Day
15h 14m
Waning Crescent, 10% of the Moon is Illuminated
May 25
Waning Crescent
May 28
New
Jun 5
First Quarter
Jun 12
Full
Jun 19
Last Quarter

Hourly Weather History & Observations

Time (PDT) Temp. Windchill Dew Point Humidity Pressure Visibility Wind Dir Wind Speed Gust Speed Precip Events Conditions
12:15 AM 51.8 °F - 33.8 °F 50% 30.07 in 10.0 mi North 3.5 mph - N/A   Clear
12:35 AM 48.2 °F - 33.8 °F 58% 30.07 in 10.0 mi Calm Calm - N/A   Clear
12:55 AM 48.2 °F - 33.8 °F 58% 30.08 in 10.0 mi Calm Calm - N/A   Clear
1:15 AM 48.2 °F - 33.8 °F 58% 30.08 in 10.0 mi NNW 4.6 mph - N/A   Clear
1:35 AM 46.4 °F - 33.8 °F 62% 30.08 in 10.0 mi Calm Calm - N/A   Clear
1:55 AM 48.2 °F - 33.8 °F 58% 30.08 in 10.0 mi Calm Calm - N/A   Clear
2:15 AM 48.2 °F - 33.8 °F 58% 30.08 in 10.0 mi Calm Calm - N/A   Clear
2:35 AM 46.4 °F - 33.8 °F 62% 30.07 in 10.0 mi Calm Calm - N/A   Clear
2:55 AM 44.6 °F 43.1 °F 30.2 °F 57% 30.07 in 10.0 mi ESE 3.5 mph - N/A   Clear
3:15 AM 44.6 °F - 33.8 °F 66% 30.07 in 10.0 mi Calm Calm - N/A   Clear
3:35 AM 42.8 °F 39.3 °F 30.2 °F 61% 30.07 in 10.0 mi NNW 5.8 mph - N/A   Clear
3:55 AM 42.8 °F 40.1 °F 32.0 °F 66% 30.07 in 10.0 mi NNW 4.6 mph - N/A   Clear
4:15 AM 44.6 °F - 33.8 °F 66% 30.07 in 10.0 mi Calm Calm - N/A   Clear
4:35 AM 42.8 °F - 30.2 °F 61% 30.07 in 10.0 mi Calm Calm - N/A   Clear
4:55 AM 44.6 °F - 32.0 °F 61% 30.07 in 10.0 mi Calm Calm - N/A   Clear
5:15 AM 42.8 °F - 30.2 °F 61% 30.07 in 10.0 mi Calm Calm - N/A   Clear
5:35 AM 42.8 °F - 30.2 °F 61% 30.08 in 10.0 mi Calm Calm - N/A   Clear
5:55 AM 44.6 °F - 30.2 °F 57% 30.07 in 10.0 mi Calm Calm - N/A   Clear
6:15 AM 44.6 °F - 32.0 °F 61% 30.07 in 10.0 mi Calm Calm - N/A   Clear
6:35 AM 46.4 °F - 35.6 °F 66% 30.08 in 10.0 mi Calm Calm - N/A   Clear
6:55 AM 46.4 °F - 35.6 °F 66% 30.08 in 10.0 mi Calm Calm - N/A   Clear
7:15 AM 46.4 °F - 33.8 °F 62% 30.08 in 10.0 mi Calm Calm - N/A   Clear
8:15 AM 51.8 °F - 37.4 °F 58% 30.08 in 10.0 mi Calm Calm - N/A   Clear
8:35 AM 53.6 °F - 35.6 °F 51% 30.08 in 10.0 mi Calm Calm - N/A   Clear
8:55 AM 53.6 °F - 35.6 °F 51% 30.07 in 10.0 mi SE 4.6 mph - N/A   Clear
9:15 AM 55.4 °F - 37.4 °F 51% 30.07 in 10.0 mi Calm Calm - N/A   Clear
9:35 AM 57.2 °F - 37.4 °F 48% 30.07 in 10.0 mi East 4.6 mph - N/A   Clear
9:55 AM 59.0 °F - 37.4 °F 45% 30.06 in 10.0 mi SE 4.6 mph - N/A   Clear
10:15 AM 60.8 °F - 37.4 °F 42% 30.06 in 10.0 mi South 3.5 mph - N/A   Clear
10:35 AM 60.8 °F - 35.6 °F 39% 30.05 in 10.0 mi Calm Calm - N/A   Clear
10:55 AM 62.6 °F - 37.4 °F 39% 30.04 in 10.0 mi Calm Calm - N/A   Clear
11:15 AM 66.2 °F - 39.2 °F 37% 30.03 in 10.0 mi Calm Calm - N/A   Clear
11:35 AM 68.0 °F - 39.2 °F 35% 30.02 in 10.0 mi Calm Calm - N/A   Clear
11:55 AM 66.2 °F - 39.2 °F 37% 30.01 in 10.0 mi Calm Calm - N/A   Clear
12:15 PM 68.0 °F - 39.2 °F 35% 30.00 in 10.0 mi ENE 3.5 mph - N/A   Clear
12:35 PM 69.8 °F - 39.2 °F 33% 30.00 in 10.0 mi Calm Calm - N/A   Clear
12:55 PM 68.0 °F - 37.4 °F 33% 29.99 in 10.0 mi Calm Calm - N/A   Clear
1:15 PM 71.6 °F - 39.2 °F 31% 29.98 in 10.0 mi Calm Calm - N/A   Clear
1:35 PM 69.8 °F - 41.0 °F 35% 29.98 in 10.0 mi NNW 4.6 mph - N/A   Clear
1:55 PM 71.6 °F - 42.8 °F 35% 29.97 in 10.0 mi NNW 3.5 mph - N/A   Clear
2:35 PM 73.4 °F - 42.8 °F 33% 29.96 in 10.0 mi North 6.9 mph - N/A   Clear
2:55 PM 73.4 °F - 41.0 °F 31% 29.94 in 10.0 mi NNW 6.9 mph - N/A   Clear
3:15 PM 75.2 °F - 41.0 °F 29% 29.94 in 10.0 mi North 6.9 mph - N/A   Clear
3:35 PM 73.4 °F - 39.2 °F 29% 29.93 in 10.0 mi NW 4.6 mph - N/A   Clear
3:55 PM 75.2 °F - 41.0 °F 29% 29.93 in 10.0 mi NW 5.8 mph - N/A   Clear
4:15 PM 73.4 °F - 39.2 °F 29% 29.93 in 10.0 mi WNW 8.1 mph - N/A   Clear
4:35 PM 75.2 °F - 41.0 °F 29% 29.92 in 10.0 mi West 9.2 mph - N/A   Clear
4:55 PM 75.2 °F - 41.0 °F 29% 29.91 in 10.0 mi WNW 9.2 mph - N/A   Clear
5:15 PM 73.4 °F - 41.0 °F 31% 29.91 in 10.0 mi NW 9.2 mph - N/A   Clear
5:35 PM 75.2 °F - 42.8 °F 31% 29.91 in 10.0 mi WNW 8.1 mph - N/A   Clear
5:55 PM 73.4 °F - 41.0 °F 31% 29.91 in 10.0 mi NW 10.4 mph - N/A   Clear
6:15 PM 71.6 °F - 42.8 °F 35% 29.90 in 10.0 mi NW 10.4 mph - N/A   Clear
6:35 PM 71.6 °F - 42.8 °F 35% 29.91 in 10.0 mi NNW 6.9 mph - N/A   Clear
6:55 PM 71.6 °F - 42.8 °F 35% 29.90 in 10.0 mi NNW 4.6 mph - N/A   Clear
7:15 PM 71.6 °F - 42.8 °F 35% 29.91 in 10.0 mi NNW 4.6 mph - N/A   Clear
7:35 PM 71.6 °F - 42.8 °F 35% 29.91 in 10.0 mi North 3.5 mph - N/A   Clear
7:55 PM 69.8 °F - 42.8 °F 38% 29.91 in 10.0 mi NW 6.9 mph - N/A   Clear
8:15 PM 66.2 °F - 41.0 °F 40% 29.91 in 10.0 mi NW 6.9 mph - N/A   Clear
8:35 PM 64.4 °F - 39.2 °F 40% 29.92 in 10.0 mi WNW 9.2 mph - N/A   Clear
8:55 PM 64.4 °F - 39.2 °F 40% 29.93 in 10.0 mi NW 10.4 mph - N/A   Clear
9:15 PM 64.4 °F - 37.4 °F 37% 29.94 in 10.0 mi WNW 12.7 mph - N/A   Clear
9:35 PM 64.4 °F - 37.4 °F 37% 29.96 in 10.0 mi WNW 15.0 mph - N/A   Clear
9:55 PM 64.4 °F - 35.6 °F 34% 29.97 in 10.0 mi WNW 12.7 mph - N/A   Partly Cloudy
10:15 PM 62.6 °F - 35.6 °F 37% 29.98 in 10.0 mi WNW 12.7 mph 20.7 mph N/A   Partly Cloudy
10:35 PM 62.6 °F - 35.6 °F 37% 29.99 in 10.0 mi WNW 17.3 mph - N/A   Scattered Clouds
10:55 PM 62.6 °F - 35.6 °F 37% 29.99 in 10.0 mi WNW 11.5 mph - N/A   Mostly Cloudy
11:15 PM 62.6 °F - 37.4 °F 39% 29.99 in 10.0 mi WNW 11.5 mph - N/A   Mostly Cloudy
11:35 PM 60.8 °F - 37.4 °F 42% 30.00 in 10.0 mi WNW 8.1 mph - N/A   Overcast
11:55 PM 60.8 °F - 37.4 °F 42% 29.99 in 10.0 mi WNW 11.5 mph - N/A   Mostly Cloudy